Weather History for KPCM - March, 2014

Change the Weather History Date:

Wednesday, March 12, 2014

  Actual Average Record
Temperature  
Mean Temperature 74 °F -  
Max Temperature 80 °F 80 °F 89 °F (1973)
Min Temperature 68 °F 53 °F 33 °F (1934)
Cooling Degree Days 9    
Growing Degree Days 24 (Base 50)    
Moisture  
Dew Point 63 °F    
Average Humidity 74    
Maximum Humidity 100    
Minimum Humidity 51    
Precipitation  
Precipitation 0.15 in - - ()
Sea Level Pressure  
Sea Level Pressure 29.84 in    
Wind  
Wind Speed 9 mph (WSW)    
Max Wind Speed 23 mph    
Max Gust Speed 40 mph    
Visibility 10 miles    
Events Rain    
Averages and records for this station are not official NWS values.
T = Trace of Precipitation, MM = Missing Value Source: NWS Daily Summary

Daily Weather History Graph

Daily Weather History Graph

Search for Another Location

Airport or City:

Trip Planner

Search our weather history database for the weather conditions in past years. The results will help you decide how hot, cold, wet, or windy it might be!

Date:

Astronomy

Mar. 12, 2014 Rise Set
Actual Time 7:41 AM EDT 7:35 PM EDT
Civil Twilight 7:18 AM EDT 7:58 PM EDT
Nautical Twilight 6:50 AM EDT 8:26 PM EDT
Astronomical Twilight 6:23 AM EDT 8:53 PM EDT
Moon 4:18 PM EDT (3/12) 4:57 AM EDT (3/12)
Length of Visible Light 12h 40m
Length of Day
11h 54m
Waxing Gibbous, 85% of the Moon is Illuminated
Mar 12
Waxing Gibbous
Mar 16
Full
Mar 23
Last Quarter
Mar 30
New
Apr 7
First Quarter

Hourly Weather History & Observations

Time (EDT) Temp. Heat Index Dew Point Humidity Pressure Visibility Wind Dir Wind Speed Gust Speed Precip Events Conditions
12:15 AM 68.0 °F - 62.6 °F 83% 29.89 in 10.0 mi South 9.2 mph - N/A   Clear
12:35 AM 68.0 °F - 62.6 °F 83% 29.89 in 10.0 mi SSW 6.9 mph - N/A   Clear
12:55 AM 68.0 °F - 62.6 °F 83% 29.89 in 10.0 mi SSW 5.8 mph - N/A   Clear
1:15 AM 68.0 °F - 62.6 °F 83% 29.88 in 10.0 mi SSW 8.1 mph - N/A   Clear
1:35 AM 69.8 °F - 62.6 °F 78% 29.87 in 10.0 mi South 5.8 mph - N/A   Clear
1:55 AM 69.8 °F - 64.4 °F 83% 29.85 in 10.0 mi South 6.9 mph - N/A   Clear
2:15 AM 69.8 °F - 64.4 °F 83% 29.85 in 10.0 mi South 8.1 mph - N/A   Clear
2:35 AM 69.8 °F - 64.4 °F 83% 29.84 in 10.0 mi South 6.9 mph - N/A   Scattered Clouds
2:55 AM 69.8 °F - 64.4 °F 83% 29.83 in 10.0 mi South 6.9 mph - N/A   Scattered Clouds
3:15 AM 69.8 °F - 64.4 °F 83% 29.82 in 10.0 mi South 8.1 mph - N/A   Mostly Cloudy
3:35 AM 69.8 °F - 66.2 °F 88% 29.82 in 10.0 mi South 10.4 mph - N/A Rain Light Rain
3:55 AM 69.8 °F - 69.8 °F 100% 29.80 in 10.0 mi South 8.1 mph - N/A   Scattered Clouds
4:15 AM 69.8 °F - 69.8 °F 100% 29.79 in 10.0 mi South 9.2 mph - N/A   Scattered Clouds
4:35 AM 69.8 °F - 69.8 °F 100% 29.78 in 10.0 mi South 9.2 mph - N/A   Mostly Cloudy
4:55 AM 69.8 °F - 66.2 °F 88% 29.79 in 10.0 mi SSW 5.8 mph 10.4 mph N/A   Mostly Cloudy
5:15 AM 69.8 °F - 68.0 °F 94% 29.79 in 10.0 mi SSW 5.8 mph - N/A   Scattered Clouds
5:35 AM 69.8 °F - 69.8 °F 100% 29.80 in 10.0 mi SSW 4.6 mph - N/A Rain Light Rain
5:55 AM 69.8 °F - 69.8 °F 100% 29.81 in 10.0 mi SSW 5.8 mph - N/A   Light Drizzle
6:15 AM 69.8 °F - - N/A% 29.80 in 10.0 mi South 3.5 mph - N/A Rain Light Rain
6:35 AM 69.8 °F - - N/A% 29.81 in 10.0 mi SSW 4.6 mph - N/A   Scattered Clouds
6:55 AM 69.8 °F - - N/A% 29.82 in 10.0 mi SSW 4.6 mph - N/A   Scattered Clouds
7:15 AM 69.8 °F - - N/A% 29.82 in 10.0 mi SSW 3.5 mph - N/A Rain Light Rain
7:35 AM 69.8 °F - - N/A% 29.83 in 10.0 mi SW 4.6 mph - N/A Rain Light Rain
7:55 AM 69.8 °F - - N/A% 29.83 in 10.0 mi SW 3.5 mph - N/A   Scattered Clouds
8:15 AM 69.8 °F - - N/A% 29.84 in 10.0 mi North - - N/A   Clear
8:35 AM 71.6 °F - - N/A% 29.84 in 10.0 mi SW 6.9 mph - N/A   Scattered Clouds
8:55 AM 71.6 °F - - N/A% 29.86 in 10.0 mi SW 9.2 mph - N/A   Mostly Cloudy
9:15 AM 71.6 °F - - N/A% 29.87 in 10.0 mi WSW 10.4 mph - N/A   Overcast
9:35 AM 73.4 °F - - N/A% 29.87 in 7.0 mi WSW 10.4 mph 16.1 mph N/A   Overcast
9:55 AM 73.4 °F - - N/A% 29.87 in 7.0 mi WSW 10.4 mph 17.3 mph N/A Rain Light Rain
10:15 AM 73.4 °F - - N/A% 29.87 in 7.0 mi SW 10.4 mph 36.8 mph N/A   Overcast
10:35 AM 75.2 °F - - N/A% 29.87 in 10.0 mi WSW 10.4 mph 16.1 mph N/A   Mostly Cloudy
10:55 AM 75.2 °F - 68.0 °F 78% 29.87 in 10.0 mi WSW 11.5 mph 18.4 mph N/A   Overcast
11:15 AM 77.0 °F - 66.2 °F 69% 29.87 in 10.0 mi WSW 11.5 mph 20.7 mph N/A   Mostly Cloudy
11:35 AM 77.0 °F - 66.2 °F 69% 29.87 in 10.0 mi WSW 12.7 mph 21.9 mph N/A   Overcast
11:55 AM 69.8 °F - 64.4 °F 83% 29.88 in 1.2 mi West 19.6 mph 36.8 mph N/A Rain Heavy Rain
12:15 PM 69.8 °F - - N/A% 29.88 in 7.0 mi West 9.2 mph 16.1 mph N/A   Overcast
12:35 PM 71.6 °F - - N/A% 29.88 in 5.0 mi West 13.8 mph 27.6 mph 0.01 in   Light Drizzle
12:55 PM 71.6 °F - - N/A% 29.87 in 10.0 mi West 11.5 mph 18.4 mph 0.02 in   Overcast
1:15 PM 73.4 °F - 66.2 °F 78% 29.86 in 10.0 mi West 12.7 mph 23.0 mph 0.01 in   Overcast
1:35 PM 73.4 °F - 66.2 °F 78% 29.86 in 10.0 mi West 10.4 mph - 0.02 in   Overcast
1:55 PM 77.0 °F - 66.2 °F 69% 29.84 in 10.0 mi West 11.5 mph 24.2 mph 0.03 in   Mostly Cloudy
2:15 PM 77.0 °F - 64.4 °F 65% 29.84 in 10.0 mi West 15.0 mph 24.2 mph N/A   Mostly Cloudy
2:35 PM 78.8 °F - 62.6 °F 57% 29.82 in 10.0 mi West 12.7 mph 19.6 mph 0.01 in   Mostly Cloudy
2:55 PM 77.0 °F - 62.6 °F 61% 29.82 in 10.0 mi West 15.0 mph 20.7 mph 0.02 in   Mostly Cloudy
3:15 PM 78.8 °F - 62.6 °F 57% 29.82 in 10.0 mi West 18.4 mph 24.2 mph N/A   Overcast
3:35 PM 78.8 °F - 62.6 °F 57% 29.80 in 10.0 mi West 16.1 mph 25.3 mph 0.01 in   Mostly Cloudy
3:55 PM 78.8 °F - 60.8 °F 54% 29.80 in 10.0 mi West 16.1 mph 26.5 mph 0.02 in   Overcast
4:15 PM 80.6 °F 81.5 °F 60.8 °F 51% 29.79 in 10.0 mi West 13.8 mph 23.0 mph N/A   Mostly Cloudy
4:35 PM 78.8 °F - 59.0 °F 51% 29.80 in 10.0 mi West 23.0 mph 28.8 mph 0.01 in   Mostly Cloudy
4:55 PM 78.8 °F - 59.0 °F 51% 29.79 in 10.0 mi West 18.4 mph 23.0 mph 0.01 in   Overcast
5:15 PM 78.8 °F - 59.0 °F 51% 29.79 in 10.0 mi West 15.0 mph 25.3 mph N/A   Overcast
5:35 PM 78.8 °F - 59.0 °F 51% 29.79 in 10.0 mi West 15.0 mph 23.0 mph 0.01 in   Mostly Cloudy
5:55 PM 77.0 °F - 59.0 °F 54% 29.79 in 10.0 mi West 16.1 mph 24.2 mph 0.01 in   Clear
6:15 PM 77.0 °F - 59.0 °F 54% 29.80 in 10.0 mi West 15.0 mph 21.9 mph N/A   Clear
6:35 PM 75.2 °F - 60.8 °F 61% 29.81 in 10.0 mi West 15.0 mph 21.9 mph 0.01 in   Scattered Clouds
6:55 PM 75.2 °F - 60.8 °F 61% 29.81 in 10.0 mi WNW 12.7 mph 18.4 mph 0.01 in   Scattered Clouds
7:15 PM 73.4 °F - 60.8 °F 65% 29.81 in 10.0 mi WNW 13.8 mph 40.3 mph N/A   Scattered Clouds
7:35 PM 71.6 °F - 60.8 °F 69% 29.82 in 10.0 mi West 11.5 mph 16.1 mph N/A   Clear
7:55 PM 71.6 °F - 60.8 °F 69% 29.82 in 10.0 mi West 10.4 mph - 0.01 in   Clear
8:15 PM 71.6 °F - 60.8 °F 69% 29.83 in 10.0 mi West 11.5 mph 18.4 mph N/A   Clear
8:35 PM 69.8 °F - 62.6 °F 78% 29.84 in 10.0 mi West 8.1 mph - N/A   Scattered Clouds
8:55 PM 69.8 °F - 62.6 °F 78% 29.84 in 10.0 mi West 12.7 mph 16.1 mph N/A   Scattered Clouds
9:15 PM 68.0 °F - 60.8 °F 78% 29.85 in 10.0 mi West 8.1 mph - N/A   Clear
9:35 PM 68.0 °F - 60.8 °F 78% 29.87 in 10.0 mi West 11.5 mph 18.4 mph 0.01 in   Mostly Cloudy
9:55 PM 68.0 °F - 60.8 °F 78% 29.88 in 10.0 mi West 10.4 mph 18.4 mph 0.01 in   Overcast
10:15 PM 68.0 °F - 60.8 °F 78% 29.89 in 10.0 mi West 16.1 mph 23.0 mph N/A   Overcast
10:35 PM 68.0 °F - 60.8 °F 78% 29.90 in 10.0 mi West 10.4 mph - N/A   Overcast
10:55 PM 68.0 °F - 60.8 °F 78% 29.89 in 10.0 mi West 12.7 mph 17.3 mph N/A   Overcast
11:15 PM 68.0 °F - 60.8 °F 78% 29.90 in 10.0 mi WNW 11.5 mph 16.1 mph N/A   Overcast
11:35 PM 68.0 °F - 59.0 °F 73% 29.90 in 10.0 mi West 15.0 mph 21.9 mph 0.01 in   Overcast
11:55 PM 68.0 °F - 59.0 °F 73% 29.91 in 10.0 mi West 9.2 mph - 0.01 in   Overcast